[[{"header":{"parameterUnit":"m.s-1","parameterCategory":1,"la1":30.2991,"la2":30.254,"lo1":-89.0895,"lo2":-89.0444,"dy":0.0017,"dx":0.0017,"nx":28,"ny":28,"refTime":"2025-02-23T03:00:00:Z","depth":0,"parameterNumber":2,"parameterNumberName":"U-component_of_WINDS"},"data":[0,0,0,0,0,0,0,0,0,0,0,0,0,0,0,0,0,0,0,0,0,0,0,0,0,0,0,0,0,0,0,0,0,0,0,0,0,0,0,0,0,0,0,0,0,0,0,0,0,0,0,0,0,0,0,0,0,0,-0.8087,-0.8086,0,-0.7995,-0.7994,-0.7993,-0.7887,-0.7885,-0.7884,-0.7882,-0.7787,-0.7786,-0.7785,0,0,0,0,0,0,0,0,0,0,0,0,0,-0.8171,-0.817,-0.8087,-0.8086,-0.8085,-0.7995,-0.7994,-0.7993,-0.7887,-0.7885,-0.7883,-0.7882,-0.7788,-0.7786,-0.7785,0,0,0,0,0,0,0,0,0,0,0,0,0,-0.8112,-0.8169,-0.8088,-0.8022,-0.8015,-0.7996,-0.7994,-0.7993,-0.7888,-0.7885,-0.7883,-0.7881,-0.7788,-0.7787,-0.7785,-0.7823,0,0,-0.778,-0.778,0,0,0,0,0,0,0,0,-0.8116,-0.8109,-0.8032,-0.8026,-0.8018,-0.795,-0.7989,-0.7936,-0.7888,-0.7936,-0.7882,-0.788,-0.7843,-0.7837,-0.7825,-0.7819,-0.7815,-0.778,-0.7779,-0.7779,-0.7778,0,0,0,0,0,0,0,-0.812,-0.8113,-0.8051,-0.8031,-0.8023,-0.7996,-0.7985,-0.7978,-0.7904,-0.7932,-0.7924,-0.7914,-0.7839,-0.7827,-0.7822,-0.7813,-0.778,-0.7779,-0.7778,-0.7777,-0.7835,-0.7837,0,0,0,0,0,0,-0.8134,-0.8117,-0.8054,-0.8048,-0.8062,-0.7997,-0.7984,-0.7975,-0.7904,-0.7891,-0.7916,-0.791,-0.7831,-0.7824,-0.7818,-0.786,-0.7779,-0.7777,-0.7776,-0.7832,-0.7835,-0.7838,0,0,0,0,0,0,-0.8136,-0.8129,-0.8057,-0.808,-0.8069,-0.7998,-0.7988,-0.7974,-0.7962,-0.7893,-0.7879,-0.7918,-0.7829,-0.7821,-0.7823,-0.7855,-0.7776,-0.7775,-0.7829,-0.7833,-0.7837,-0.7943,0,0,0,0,0,0,-0.8139,-0.8131,-0.8145,-0.8081,-0.8068,-0.8065,-0.7989,-0.7974,-0.7959,-0.795,-0.789,-0.7878,-0.7826,-0.7826,-0.7822,-0.7852,-0.7774,-0.7826,-0.7831,-0.7835,-0.7936,-0.795,-0.7961,0,0,0,0,0,-0.8142,-0.8178,-0.8146,-0.8139,-0.8085,-0.8067,-0.8059,-0.7999,-0.7962,-0.7976,-0.7931,-0.788,-0.7852,-0.7827,-0.7821,-0.7851,-0.7824,-0.783,-0.7835,-0.7931,-0.7947,-0.7961,0,0,0,0,0,0,-0.8247,-0.8169,-0.8132,-0.8149,-0.8115,-0.8049,-0.8064,-0.8018,-0.7994,-0.7986,-0.7912,-0.79,-0.7912,-0.7881,-0.7855,-0.7885,-0.783,-0.7835,-0.7905,-0.792,-0.7932,-0.7941,-0.7772,0,0,0,0,0,-0.8272,-0.8265,-0.8196,-0.8217,-0.8202,-0.8136,-0.8126,-0.8083,-0.8045,-0.803,-0.7986,-0.7951,-0.7934,-0.7925,-0.7906,-0.793,-0.7917,-0.7948,-0.796,-0.7971,-0.7977,-0.7989,-0.8003,-0.7856,-0.7856,-0.7856,0,0,-0.8324,-0.828,-0.828,-0.8237,-0.8206,-0.82,-0.8125,-0.8121,-0.8116,-0.8029,-0.803,-0.7996,-0.7952,-0.7967,-0.7971,-0.7942,-0.8014,-0.7978,-0.7987,-0.7987,-0.7996,-0.801,-0.8022,-0.786,-0.7859,-0.7859,0,0,-0.8415,-0.8381,-0.8395,-0.8366,-0.832,-0.8276,-0.8279,-0.822,-0.8194,-0.8193,-0.8128,-0.812,-0.8093,-0.8065,-0.8047,-0.8128,-0.808,-0.8123,-0.819,-0.8202,-0.8214,-0.8224,-0.8255,-0.8266,-0.8128,-0.8129,-0.8129,0,-0.8486,-0.8474,-0.8408,-0.8409,-0.8393,-0.8314,-0.8328,-0.8302,-0.8253,-0.8243,-0.8211,-0.8175,-0.814,-0.8147,-0.8167,-0.8154,-0.8157,-0.8131,-0.8218,-0.8227,-0.8235,-0.8264,-0.8275,-0.8134,-0.8134,-0.8133,-0.8133,0,-0.8564,-0.8557,-0.8574,-0.8529,-0.8513,-0.8521,-0.8456,-0.8449,-0.8406,-0.8366,-0.8366,-0.8321,-0.8292,-0.829,-0.8248,-0.8291,-0.8275,-0.8231,-0.8175,-0.8256,-0.8282,-0.8292,-0.8143,-0.8141,-0.8139,-0.8137,0,0,-0.8721,-0.8639,-0.8646,-0.8625,-0.8568,-0.8562,-0.8565,-0.8537,-0.8533,-0.8501,-0.8503,-0.8481,-0.8441,-0.842,-0.8374,-0.8385,-0.8454,-0.834,-0.8337,-0.8365,-0.8501,-0.8537,-0.855,-0.8421,-0.8423,-0.8424,-0.8506,0,-0.8804,-0.8807,-0.8748,-0.8767,-0.8761,-0.8685,-0.8688,-0.8654,-0.8616,-0.8604,-0.8561,-0.8548,-0.8494,-0.8482,-0.8489,-0.8445,-0.8481,-0.8437,-0.8423,-0.8424,-0.844,-0.8563,-0.86,-0.868,-0.8515,-0.8517,-0.8518,0,-0.8902,-0.8877,-0.8896,-0.8839,-0.8834,-0.8838,-0.8808,-0.8797,-0.8757,-0.8728,-0.8706,-0.8653,-0.8653,-0.8598,-0.8597,-0.8569,-0.8559,-0.8536,-0.8538,-0.8536,-0.8478,-0.8568,-0.8704,-0.8717,-0.8533,-0.8531,-0.853,0,-0.9018,-0.8988,-0.8996,-0.8979,-0.8913,-0.8918,-0.889,-0.8847,-0.8834,-0.8807,-0.8798,-0.8771,-0.8757,-0.8737,-0.8679,-0.8644,-0.8685,-0.8625,-0.8662,-0.8664,-0.8677,-0.8677,-0.8816,-0.8667,-0.8666,-0.8666,-0.8666,0,-0.9119,-0.9134,-0.9047,-0.9052,-0.9067,-0.8998,-0.9014,-0.8979,-0.8941,-0.8938,-0.887,-0.8868,-0.879,-0.878,-0.8734,-0.8741,-0.8734,-0.8712,-0.87,-0.872,-0.8723,-0.8714,-0.8708,-0.8669,-0.8669,-0.8668,-0.8667,0,-0.9252,-0.9194,-0.9198,-0.9134,-0.9118,-0.9133,-0.9078,-0.908,-0.9037,-0.9034,-0.9029,-0.8962,-0.8946,-0.8885,-0.8855,-0.8824,-0.8847,-0.8822,-0.8862,-0.8854,-0.8896,-0.8894,-0.9036,-0.9052,-0.889,-0.8892,-0.8893,0,-0.9322,-0.9332,-0.9269,-0.9263,-0.9238,-0.9228,-0.9215,-0.9146,-0.9135,-0.9089,-0.9098,-0.9076,-0.9056,-0.9035,-0.8983,-0.8959,-0.8935,-0.8986,-0.8931,-0.8951,-0.8938,-0.894,-0.8941,-0.8999,-0.9001,-0.9003,-0.9004,0,-0.9452,-0.9423,-0.9407,-0.9381,-0.9367,-0.9342,-0.9314,-0.9312,-0.9236,-0.9227,-0.9211,-0.9195,-0.9164,-0.9144,-0.9112,-0.9083,-0.9032,-0.9022,-0.9029,-0.9051,-0.9075,-0.9065,-0.8897,-0.9019,-0.9018,-0.9017,-0.9016,-0.9015,-0.9557,-0.9563,-0.9521,-0.9505,-0.9476,-0.9451,-0.9451,-0.9408,-0.9393,-0.9363,-0.9323,-0.9312,-0.9271,-0.9222,-0.9197,-0.9187,-0.9158,-0.9169,-0.9172,-0.9177,-0.9188,-0.9074,-0.9181,-0.918,-0.918,-0.9179,-0.9179,0,-0.9686,-0.9655,-0.9641,-0.9604,-0.9592,-0.9543,-0.951,-0.9503,-0.9494,-0.946,-0.9441,-0.9423,-0.9403,-0.935,-0.9325,-0.9328,-0.9304,-0.9324,-0.9324,-0.9319,-0.9213,-0.921,-0.9344,-0.9344,-0.9344,-0.9344,-0.9344,-0.9344,-0.9752,-0.9761,-0.9726,-0.972,-0.9688,-0.9677,-0.9662,-0.9639,-0.9612,-0.9594,-0.9578,-0.9543,-0.9501,-0.9473,-0.9453,-0.9437,-0.9433,-0.9461,-0.9439,-0.9342,-0.9326,-0.9311,-0.9308,-0.946,-0.946,-0.9545,-0.9546,-0.9547]},{"header":{"parameterUnit":"m.s-1","parameterCategory":1,"la1":30.2991,"la2":30.254,"lo1":-89.0895,"lo2":-89.0444,"dy":0.0017,"dx":0.0017,"nx":28,"ny":28,"refTime":"2025-02-23T03:00:00:Z","depth":0,"parameterNumber":3,"parameterNumberName":"V-component_of_WINDS"},"data":[0,0,0,0,0,0,0,0,0,0,0,0,0,0,0,0,0,0,0,0,0,0,0,0,0,0,0,0,0,0,0,0,0,0,0,0,0,0,0,0,0,0,0,0,0,0,0,0,0,0,0,0,0,0,0,0,0,0,-0.1333,-0.1334,0,-0.1442,-0.1443,-0.1444,-0.1501,-0.1501,-0.1501,-0.1502,-0.1614,-0.1617,-0.162,0,0,0,0,0,0,0,0,0,0,0,0,0,-0.1172,-0.1175,-0.1332,-0.1334,-0.1335,-0.1442,-0.1443,-0.1445,-0.1501,-0.1501,-0.1502,-0.1502,-0.1613,-0.1616,-0.162,0,0,0,0,0,0,0,0,0,0,0,0,0,-0.1258,-0.1176,-0.1332,-0.1376,-0.1381,-0.1441,-0.1443,-0.1445,-0.1501,-0.1501,-0.1502,-0.1502,-0.1612,-0.1616,-0.162,-0.1645,0,0,-0.1634,-0.1636,0,0,0,0,0,0,0,0,-0.1253,-0.1264,-0.1368,-0.1373,-0.1379,-0.1458,-0.1428,-0.1512,-0.1501,-0.1456,-0.1502,-0.1502,-0.1562,-0.157,-0.1591,-0.165,-0.1655,-0.1634,-0.1637,-0.1639,-0.164,0,0,0,0,0,0,0,-0.1247,-0.1259,-0.1376,-0.137,-0.1376,-0.139,-0.1403,-0.1444,-0.1507,-0.146,-0.1464,-0.1476,-0.1565,-0.1586,-0.1594,-0.1657,-0.1634,-0.1638,-0.1641,-0.1642,-0.1742,-0.1742,0,0,0,0,0,0,-0.1234,-0.1254,-0.1372,-0.1379,-0.1315,-0.1393,-0.1407,-0.1433,-0.1507,-0.1518,-0.1476,-0.1479,-0.1579,-0.1589,-0.1598,-0.1632,-0.1639,-0.1643,-0.1645,-0.1742,-0.1742,-0.1742,0,0,0,0,0,0,-0.123,-0.1244,-0.1368,-0.1318,-0.1335,-0.1396,-0.1424,-0.1435,-0.1456,-0.1519,-0.153,-0.1487,-0.1579,-0.1592,-0.1633,-0.1637,-0.1645,-0.1649,-0.1742,-0.1742,-0.1742,-0.17,0,0,0,0,0,0,-0.1225,-0.1242,-0.1252,-0.1318,-0.1337,-0.1401,-0.1424,-0.1437,-0.1464,-0.1468,-0.1532,-0.1543,-0.158,-0.1626,-0.1637,-0.1643,-0.1652,-0.1742,-0.1742,-0.1742,-0.1702,-0.1699,-0.1697,0,0,0,0,0,-0.1219,-0.1236,-0.1253,-0.1267,-0.1351,-0.1401,-0.1412,-0.1456,-0.1464,-0.1475,-0.1515,-0.154,-0.1634,-0.163,-0.1643,-0.165,-0.1742,-0.1742,-0.1742,-0.1703,-0.1699,-0.1697,0,0,0,0,0,0,-0.1171,-0.1246,-0.1265,-0.1303,-0.1345,-0.1411,-0.1426,-0.1451,-0.1492,-0.1494,-0.1545,-0.1559,-0.1596,-0.1627,-0.1621,-0.1678,-0.1691,-0.1693,-0.1656,-0.1654,-0.1651,-0.1644,-0.1656,0,0,0,0,0,-0.1164,-0.1199,-0.1262,-0.129,-0.131,-0.1364,-0.1388,-0.1417,-0.1463,-0.1481,-0.1524,-0.1568,-0.1607,-0.1632,-0.1671,-0.1706,-0.1721,-0.1717,-0.1714,-0.1712,-0.1714,-0.1735,-0.1734,-0.1742,-0.1742,-0.1742,0,0,-0.1152,-0.1197,-0.1216,-0.1282,-0.1318,-0.1352,-0.1379,-0.1414,-0.1441,-0.1487,-0.1528,-0.1561,-0.1613,-0.1651,-0.1669,-0.1678,-0.1715,-0.1712,-0.171,-0.1713,-0.1735,-0.1734,-0.1733,-0.1742,-0.1742,-0.1742,0,0,-0.1147,-0.1184,-0.1212,-0.1247,-0.1301,-0.1337,-0.1343,-0.1404,-0.1428,-0.147,-0.1506,-0.1537,-0.1604,-0.1639,-0.1666,-0.1672,-0.1698,-0.1684,-0.1671,-0.1691,-0.169,-0.169,-0.1693,-0.1693,-0.1685,-0.1685,-0.1685,0,-0.1125,-0.1178,-0.1223,-0.1256,-0.1284,-0.1327,-0.1355,-0.1387,-0.1451,-0.1469,-0.1477,-0.1561,-0.1599,-0.1646,-0.1647,-0.1667,-0.1676,-0.1678,-0.1686,-0.1687,-0.1687,-0.169,-0.1691,-0.1683,-0.1684,-0.1684,-0.1684,0,-0.1148,-0.1185,-0.12,-0.1261,-0.1291,-0.1321,-0.137,-0.1395,-0.1421,-0.1455,-0.1497,-0.1544,-0.1594,-0.1607,-0.1633,-0.1657,-0.166,-0.1676,-0.1691,-0.1683,-0.1688,-0.1689,-0.168,-0.1681,-0.1682,-0.1682,0,0,-0.1118,-0.1202,-0.1207,-0.1235,-0.1297,-0.1326,-0.1358,-0.1406,-0.1426,-0.1468,-0.1497,-0.1551,-0.1567,-0.1597,-0.1627,-0.1644,-0.1647,-0.1658,-0.166,-0.1655,-0.1676,-0.1665,-0.1665,-0.1663,-0.1663,-0.1664,-0.1672,0,-0.1122,-0.1182,-0.1223,-0.1267,-0.1301,-0.1341,-0.1369,-0.141,-0.1442,-0.1476,-0.1511,-0.155,-0.1566,-0.1585,-0.1603,-0.1642,-0.1652,-0.1642,-0.169,-0.1692,-0.1678,-0.1668,-0.1656,-0.1661,-0.1674,-0.1674,-0.1675,0,-0.1136,-0.1177,-0.1224,-0.1282,-0.1298,-0.1323,-0.137,-0.1401,-0.1448,-0.1471,-0.1503,-0.1534,-0.1569,-0.1579,-0.1629,-0.1621,-0.1643,-0.1665,-0.1666,-0.1673,-0.1684,-0.1675,-0.1664,-0.1665,-0.1677,-0.1677,-0.1677,0,-0.111,-0.1177,-0.1214,-0.1236,-0.1304,-0.1321,-0.135,-0.1397,-0.1423,-0.1464,-0.1482,-0.1526,-0.1551,-0.1584,-0.1626,-0.1629,-0.1671,-0.1684,-0.1691,-0.169,-0.1699,-0.1698,-0.1692,-0.1711,-0.1711,-0.1711,-0.1711,0,-0.1112,-0.1139,-0.1203,-0.1226,-0.1257,-0.1303,-0.1333,-0.1366,-0.1407,-0.1437,-0.1473,-0.15,-0.1553,-0.1587,-0.1619,-0.1655,-0.1666,-0.1685,-0.1694,-0.1683,-0.168,-0.1699,-0.17,-0.1711,-0.1711,-0.1711,-0.1711,0,-0.1089,-0.1132,-0.1175,-0.1236,-0.1252,-0.1272,-0.1324,-0.1348,-0.1382,-0.1419,-0.143,-0.1483,-0.1524,-0.1569,-0.1625,-0.1647,-0.1681,-0.1693,-0.1665,-0.1671,-0.1675,-0.1674,-0.1682,-0.1686,-0.17,-0.17,-0.17,0,-0.1088,-0.111,-0.1172,-0.1195,-0.1223,-0.1259,-0.1285,-0.1331,-0.1357,-0.1412,-0.1428,-0.1472,-0.151,-0.1573,-0.1617,-0.166,-0.1673,-0.1673,-0.168,-0.1668,-0.1675,-0.1673,-0.1676,-0.1671,-0.1671,-0.167,-0.167,0,-0.1081,-0.1101,-0.1139,-0.1183,-0.1214,-0.1251,-0.129,-0.1306,-0.1359,-0.1387,-0.1429,-0.1458,-0.1515,-0.1558,-0.1606,-0.1636,-0.1662,-0.1667,-0.1671,-0.1661,-0.1645,-0.1654,-0.1661,-0.1667,-0.1668,-0.1668,-0.1668,-0.1668,-0.107,-0.1091,-0.1139,-0.1179,-0.1212,-0.1247,-0.1273,-0.1309,-0.1345,-0.1395,-0.1419,-0.1462,-0.1507,-0.1574,-0.1603,-0.1637,-0.1645,-0.1651,-0.1652,-0.1653,-0.1651,-0.1638,-0.1646,-0.1646,-0.1646,-0.1646,-0.1646,0,-0.1066,-0.1098,-0.1135,-0.1187,-0.1219,-0.124,-0.1283,-0.1308,-0.1345,-0.1385,-0.1421,-0.147,-0.1511,-0.1557,-0.1602,-0.162,-0.1633,-0.163,-0.163,-0.1636,-0.1641,-0.1633,-0.1619,-0.1619,-0.1619,-0.1619,-0.1619,-0.1619,-0.1068,-0.1105,-0.1131,-0.1185,-0.1217,-0.1259,-0.1282,-0.1315,-0.1347,-0.1399,-0.1434,-0.1464,-0.1506,-0.1554,-0.1593,-0.1605,-0.162,-0.1614,-0.163,-0.1634,-0.1636,-0.1638,-0.1631,-0.1617,-0.1617,-0.1623,-0.1623,-0.1623]}]]